When you browse on this site, cookies collect data to enhance your experience and personalize the content and advertising you see.
Visit our Privacy Policy to learn more. By continuing to use the site, you agree to this use of cookies and data.
  • In Switzerland
  • List of Countries
  • For 7 days
  • Water Temperature
  • Weather Map
  • Weather Widgets
  • user-avatar
    Login

    Hourly Weather Sonino

    Today, 19 August, Monday

    Time Temperature Precipitation Wind Pressure Humidity
    00:00 +14°C° 0 mm 1 mps 745 mmHg 91%
    01:00 +13°C° 0 mm 1 mps 745 mmHg 92%
    02:00 +13°C° 0 mm 1 mps 745 mmHg 93%
    03:00 +13°C° 0 mm 1 mps 745 mmHg 93%
    04:00 +13°C° 0 mm 2 mps 745 mmHg 92%
    05:00 +13°C° 0 mm 2 mps 745 mmHg 92%
    06:00 +15°C° 0 mm 2 mps 745 mmHg 85%
    07:00 +16°C° 0 mm 3 mps 745 mmHg 78%
    08:00 +18°C° 0 mm 3 mps 745 mmHg 71%
    09:00 +19°C° 0 mm 3 mps 745 mmHg 72%
    10:00 +19°C° 0 mm 3 mps 745 mmHg 74%
    11:00 +19°C° 0 mm 3 mps 745 mmHg 76%
    12:00 +21°C° 0 mm 3 mps 745 mmHg 71%
    13:00 +24°C° 0 mm 3 mps 745 mmHg 67%
    14:00 +26°C° 0 mm 4 mps 745 mmHg 63%
    15:00 +25°C° 0.4 mm 3 mps 745 mmHg 69%
    16:00 +25°C° 0.4 mm 3 mps 745 mmHg 76%
    17:00 +24°C° 0.4 mm 3 mps 745 mmHg 82%
    18:00 +22°C° 0.3 mm 3 mps 745 mmHg 87%
    19:00 +21°C° 0.3 mm 2 mps 745 mmHg 91%
    20:00 +20°C° 0.3 mm 2 mps 745 mmHg 95%
    21:00 +19°C° 0 mm 2 mps 745 mmHg 96%
    22:00 +19°C° 0 mm 2 mps 746 mmHg 97%
    23:00 +19°C° 0 mm 2 mps 746 mmHg 97%

    Tomorrow, 20 August, Tuesday

    Time Temperature Precipitation Wind Pressure Humidity
    00:00 +18°C° 0.1 mm 2 mps 747 mmHg 97%
    01:00 +18°C° 0.1 mm 2 mps 747 mmHg 98%
    02:00 +18°C° 0.1 mm 2 mps 748 mmHg 98%
    03:00 +17°C° 0.3 mm 2 mps 748 mmHg 97%
    04:00 +17°C° 0.3 mm 2 mps 749 mmHg 97%
    05:00 +16°C° 0.3 mm 2 mps 749 mmHg 97%
    06:00 +17°C° 0 mm 2 mps 749 mmHg 94%
    07:00 +17°C° 0 mm 2 mps 750 mmHg 91%
    08:00 +17°C° 0 mm 2 mps 750 mmHg 88%
    09:00 +19°C° 0 mm 2 mps 750 mmHg 77%
    10:00 +20°C° 0 mm 2 mps 750 mmHg 67%
    11:00 +21°C° 0 mm 2 mps 751 mmHg 56%
    12:00 +23°C° 0 mm 2 mps 751 mmHg 54%
    13:00 +24°C° 0 mm 2 mps 751 mmHg 52%
    14:00 +24°C° 0 mm 2 mps 751 mmHg 50%
    15:00 +24°C° 0 mm 2 mps 751 mmHg 54%
    16:00 +24°C° 0 mm 2 mps 751 mmHg 57%
    17:00 +24°C° 0 mm 1 mps 751 mmHg 60%
    18:00 +22°C° 0 mm 1 mps 752 mmHg 66%
    19:00 +20°C° 0 mm 1 mps 752 mmHg 73%
    20:00 +18°C° 0 mm 1 mps 752 mmHg 79%
    21:00 +16°C° 0 mm 1 mps 752 mmHg 82%
    22:00 +16°C° 0 mm 1 mps 752 mmHg 85%
    23:00 +15°C° 0 mm 1 mps 753 mmHg 88%

    Day after tomorrow, 21 August, Wednesday

    Time Temperature Precipitation Wind Pressure Humidity
    00:00 +15°C° 0 mm 1 mps 753 mmHg 89%
    01:00 +14°C° 0 mm 1 mps 753 mmHg 90%
    02:00 +14°C° 0 mm 1 mps 753 mmHg 91%
    03:00 +14°C° 0 mm 1 mps 753 mmHg 90%
    04:00 +14°C° 0 mm 1 mps 753 mmHg 89%
    05:00 +14°C° 0 mm 1 mps 753 mmHg 89%
    06:00 +15°C° 0 mm 1 mps 753 mmHg 83%
    07:00 +18°C° 0 mm 1 mps 753 mmHg 78%
    08:00 +19°C° 0 mm 1 mps 753 mmHg 73%
    09:00 +20°C° 0 mm 1 mps 753 mmHg 71%
    10:00 +21°C° 0 mm 1 mps 753 mmHg 69%
    11:00 +22°C° 0 mm 1 mps 753 mmHg 66%
    12:00 +21°C° 0.5 mm 1 mps 753 mmHg 75%
    13:00 +19°C° 0.5 mm 1 mps 752 mmHg 84%
    14:00 +17°C° 0.5 mm 2 mps 752 mmHg 93%
    15:00 +16°C° 1.6 mm 2 mps 752 mmHg 94%
    16:00 +16°C° 1.6 mm 2 mps 752 mmHg 95%
    17:00 +15°C° 1.6 mm 2 mps 751 mmHg 96%
    18:00 +15°C° 0.9 mm 1 mps 751 mmHg 97%
    19:00 +14°C° 0.9 mm 1 mps 751 mmHg 97%
    20:00 +13°C° 0.9 mm 0 mps 751 mmHg 98%
    21:00 +14°C° 0.2 mm 1 mps 752 mmHg 98%
    22:00 +14°C° 0.2 mm 1 mps 752 mmHg 98%
    23:00 +13°C° 0.2 mm 1 mps 752 mmHg 98%

    22 August, Thursday

    Time Temperature Precipitation Wind Pressure Humidity
    00:00 +13°C° 0 mm 1 mps 752 mmHg 98%
    01:00 +13°C° 0 mm 2 mps 753 mmHg 98%
    02:00 +12°C° 0 mm 2 mps 753 mmHg 98%
    03:00 +12°C° 0 mm 1 mps 753 mmHg 98%
    04:00 +11°C° 0 mm 1 mps 753 mmHg 97%
    05:00 +11°C° 0 mm 1 mps 753 mmHg 97%
    06:00 +12°C° 0 mm 1 mps 753 mmHg 95%
    07:00 +14°C° 0 mm 1 mps 754 mmHg 93%
    08:00 +15°C° 0 mm 1 mps 754 mmHg 90%
    09:00 +18°C° 0 mm 1 mps 754 mmHg 81%
    10:00 +20°C° 0 mm 1 mps 754 mmHg 72%
    11:00 +21°C° 0 mm 1 mps 754 mmHg 63%
    12:00 +20°C° 0 mm 2 mps 754 mmHg 62%
    13:00 +21°C° 0 mm 2 mps 754 mmHg 60%
    14:00 +21°C° 0 mm 2 mps 754 mmHg 59%
    15:00 +20°C° 0 mm 2 mps 754 mmHg 60%
    16:00 +20°C° 0 mm 2 mps 753 mmHg 62%
    17:00 +21°C° 0 mm 1 mps 753 mmHg 64%
    18:00 +19°C° 0 mm 1 mps 753 mmHg 67%
    19:00 +16°C° 0 mm 1 mps 753 mmHg 70%
    20:00 +14°C° 0 mm 1 mps 753 mmHg 74%
    21:00 +12°C° 0 mm 0 mps 754 mmHg 76%
    22:00 +12°C° 0 mm 0 mps 754 mmHg 77%
    23:00 +11°C° 0 mm 0 mps 754 mmHg 79%

    23 August, Friday

    Time Temperature Precipitation Wind Pressure Humidity
    00:00 +11°C° 0 mm 0 mps 754 mmHg 80%
    01:00 +11°C° 0 mm 1 mps 754 mmHg 81%
    02:00 +11°C° 0 mm 1 mps 754 mmHg 83%
    03:00 +11°C° 0 mm 1 mps 754 mmHg 83%
    04:00 +11°C° 0 mm 1 mps 754 mmHg 84%
    05:00 +12°C° 0 mm 1 mps 754 mmHg 85%
    06:00 +13°C° 0 mm 1 mps 754 mmHg 82%
    07:00 +14°C° 0 mm 1 mps 754 mmHg 79%
    08:00 +15°C° 0 mm 1 mps 754 mmHg 76%
    09:00 +18°C° 0.1 mm 1 mps 755 mmHg 71%
    10:00 +18°C° 0.1 mm 2 mps 755 mmHg 67%
    11:00 +19°C° 0.1 mm 2 mps 755 mmHg 63%
    12:00 +19°C° 0.2 mm 2 mps 755 mmHg 60%
    13:00 +20°C° 0.2 mm 3 mps 755 mmHg 58%
    14:00 +20°C° 0.2 mm 3 mps 755 mmHg 55%
    15:00 +20°C° 0 mm 2 mps 754 mmHg 56%
    16:00 +20°C° 0 mm 2 mps 754 mmHg 57%
    17:00 +20°C° 0 mm 2 mps 754 mmHg 59%
    18:00 +19°C° 0 mm 1 mps 754 mmHg 66%
    19:00 +16°C° 0 mm 1 mps 755 mmHg 73%
    20:00 +13°C° 0 mm 0 mps 755 mmHg 81%
    21:00 +12°C° 0 mm 0 mps 755 mmHg 83%
    22:00 +12°C° 0 mm 0 mps 755 mmHg 84%
    23:00 +11°C° 0 mm 0 mps 755 mmHg 86%

    24 August, Saturday

    Time Temperature Precipitation Wind Pressure Humidity
    00:00 +12°C° 0 mm 1 mps 756 mmHg 88%
    01:00 +12°C° 0 mm 1 mps 756 mmHg 90%
    02:00 +11°C° 0 mm 1 mps 756 mmHg 92%
    03:00 +11°C° 0 mm 1 mps 756 mmHg 93%
    04:00 +11°C° 0 mm 1 mps 756 mmHg 94%
    05:00 +11°C° 0 mm 1 mps 756 mmHg 95%
    06:00 +13°C° 0 mm 1 mps 756 mmHg 88%
    07:00 +15°C° 0 mm 1 mps 756 mmHg 82%
    08:00 +18°C° 0 mm 1 mps 757 mmHg 76%
    09:00 +19°C° 0 mm 1 mps 757 mmHg 70%
    10:00 +21°C° 0 mm 1 mps 757 mmHg 63%
    11:00 +22°C° 0 mm 1 mps 757 mmHg 57%
    12:00 +22°C° 0 mm 1 mps 757 mmHg 56%
    13:00 +22°C° 0 mm 1 mps 756 mmHg 55%
    14:00 +22°C° 0 mm 1 mps 756 mmHg 54%
    15:00 +22°C° 0 mm 1 mps 756 mmHg 57%
    16:00 +22°C° 0 mm 1 mps 756 mmHg 60%
    17:00 +22°C° 0 mm 1 mps 756 mmHg 63%
    18:00 +18°C° 0 mm 0 mps 755 mmHg 70%
    19:00 +16°C° 0 mm 0 mps 755 mmHg 76%
    20:00 +14°C° 0 mm 0 mps 755 mmHg 83%
    21:00 +14°C° 0 mm 1 mps 755 mmHg 84%
    22:00 +14°C° 0 mm 1 mps 755 mmHg 86%
    23:00 +13°C° 0 mm 1 mps 755 mmHg 87%
    Show more